User: anonymous   Login
Location: Unspecified
(49.8670°N, 0.0000°E)
Time: 08:52:13
(UTC+00:00)
Language:

Vanguard 3 - Orbit

View from above orbital plane
View from above orbital plane
View from above satellite
View from above satellite

Ground track
Ground track

The orbit data is extracted from the following two-line orbital elements,

1    20U 59007A   19174.96074332  .00000228  00000-0  88532-4 0  9991
2    20  33.3459  22.7262 1667112 159.8055 207.7274 11.55653239189039
Epoch (UTC): 23 June 2019 23:03:28
Eccentricity: 0.1667112
inclination: 33.3459°
perigee height: 508 km
apogee height: 3263 km
right ascension of ascending node: 22.7262°
argument of perigee: 159.8055°
revolutions per day: 11.55653239
mean anomaly at epoch: 207.7274°
orbit number at epoch: 18903

The dashed part of the orbit path shows where the satellite is in the earth's shadow,  

DLR